Вернуться в каталог

BREEZE-M R/B

АктивенGEO
NORAD 55842·ROCKET BODY·🇷🇺 Russia

Запущен Mar 12, 2023 с Baikonur Cosmodrome

Loading…

TLE

СвежийSource: Space-Track

Эпоха: Sep 13, 2026, 20:46 UTC

1 55842U 23031B   26256.86555407 -.00000268  00000-0  00000-0 0  9991
2 55842   3.0560  78.4665 0067083  13.3506 347.2888  0.98963120 12650

Отслеживайте BREEZE-M R/B в реальном времени с AllMySat

Download on the App Store